TimeEDT,TemperatureF,Dew PointF,Humidity,Sea Level PressureIn,VisibilityMPH,Wind Direction,Wind SpeedMPH,Gust SpeedMPH,PrecipitationIn,Events,Conditions,WindDirDegrees,DateUTC
12:58 AM,78.1,73.9,87,30.09,9.0,South,10.4,-,N/A,,Partly Cloudy,180,2013-07-02 04:58:00
1:58 AM,79.0,75.0,88,30.10,10.0,South,11.5,-,N/A,,Mostly Cloudy,190,2013-07-02 05:58:00
2:58 AM,78.1,75.0,90,30.10,10.0,South,11.5,-,N/A,,Partly Cloudy,190,2013-07-02 06:58:00
3:15 AM,75.2,73.4,94,30.12,1.8,SW,26.5,34.5,0.13,Rain,Heavy Rain,220,2013-07-02 07:15:00
3:27 AM,73.4,71.6,94,30.10,3.0,SW,17.3,27.6,0.18,Rain,Light Rain,230,2013-07-02 07:27:00
3:58 AM,75.0,72.0,90,30.10,10.0,SW,10.4,-,0.18,,Partly Cloudy,220,2013-07-02 07:58:00
4:41 AM,75.2,71.6,89,30.12,10.0,South,8.1,-,N/A,,Overcast,170,2013-07-02 08:41:00
4:58 AM,75.0,72.0,90,30.13,10.0,South,9.2,-,0.04,,Mostly Cloudy,180,2013-07-02 08:58:00
5:58 AM,75.9,73.9,94,30.13,8.0,South,6.9,-,0.00,,Clear,180,2013-07-02 09:58:00
6:58 AM,75.9,73.9,94,30.15,9.0,South,5.8,-,N/A,,Clear,180,2013-07-02 10:58:00
7:58 AM,78.1,73.9,87,30.17,9.0,South,6.9,-,N/A,,Clear,170,2013-07-02 11:58:00
8:58 AM,80.1,73.9,81,30.18,10.0,South,10.4,-,N/A,,Clear,180,2013-07-02 12:58:00
10:58 AM,82.9,75.9,79,30.19,10.0,South,9.2,19.6,N/A,,Mostly Cloudy,170,2013-07-02 14:58:00
11:58 AM,84.0,77.0,79,30.19,10.0,South,13.8,23.0,N/A,,Clear,170,2013-07-02 15:58:00
12:58 PM,84.0,78.1,82,30.19,9.0,South,13.8,24.2,N/A,,Clear,170,2013-07-02 16:58:00
1:58 PM,84.0,78.1,82,30.19,9.0,South,13.8,23.0,N/A,,Partly Cloudy,170,2013-07-02 17:58:00
2:58 PM,84.0,77.0,79,30.20,9.0,South,11.5,20.7,N/A,,Clear,180,2013-07-02 18:58:00
3:58 PM,84.0,77.0,79,30.19,9.0,South,15.0,-,N/A,,Clear,190,2013-07-02 19:58:00
4:58 PM,84.0,77.0,79,30.19,9.0,South,11.5,-,N/A,,Mostly Cloudy,180,2013-07-02 20:58:00
5:11 PM,84.2,77.0,79,30.18,9.0,South,11.5,-,N/A,,Mostly Cloudy,180,2013-07-02 21:11:00
5:58 PM,82.9,77.0,82,30.19,9.0,South,12.7,-,N/A,,Mostly Cloudy,170,2013-07-02 21:58:00
6:58 PM,81.0,75.0,82,30.20,9.0,South,10.4,18.4,N/A,,Scattered Clouds,180,2013-07-02 22:58:00
7:58 PM,80.1,73.9,81,30.21,10.0,South,9.2,-,N/A,,Overcast,170,2013-07-02 23:58:00
8:58 PM,79.0,75.0,88,30.22,10.0,South,8.1,-,N/A,,Scattered Clouds,170,2013-07-03 00:58:00
9:11 PM,80.6,75.2,84,30.22,10.0,South,6.9,-,N/A,,Mostly Cloudy,180,2013-07-03 01:11:00
9:28 PM,78.8,75.2,89,30.24,2.5,SSE,15.0,25.3,0.10,Rain,Rain,160,2013-07-03 01:28:00
9:37 PM,75.2,73.4,94,30.24,3.0,South,4.6,20.7,0.14,Rain,Light Rain,190,2013-07-03 01:37:00
9:58 PM,75.9,73.9,94,30.24,10.0,SSE,6.9,-,0.14,,Mostly Cloudy,160,2013-07-03 01:58:00
10:58 PM,77.0,75.0,94,30.25,9.0,SE,10.4,16.1,0.00,,Mostly Cloudy,140,2013-07-03 02:58:00
11:58 PM,75.9,73.9,94,30.24,10.0,SSE,8.1,-,0.01,,Mostly Cloudy,160,2013-07-03 03:58:00